Location: Hamilton
(37.7830°S, 175.2830°E)
Time: 06:59:04
(UTC+13:00)

Cosmos 1709 Rocket - Pass Details

Date: 24 January 2019
Orbit: 949 x 1001 km, 82.9° (Epoch: 19 February)

Event Time Altitude Azimuth Distance (km) Brightness Sun altitude
Exits shadow 23:15:14 55° 44° (NE) 1,175 4.0 -24.7°
Maximum altitude 23:16:17 63° 87° (E) 1,093 4.0 -24.8°
Drops below altitude 10° 23:22:29 10° 166° (SSE) 2,743 6.9 -25.5°
Sets 23:25:01 0° 169° (S) 3,689 7.7 -25.8°
